This is the latest recevied weather packets stored in our database for station/object N5JXS. If no packets are shown the sender has not sent any weather packets the latest 10 day(s).
| Time | Temp. | Humidity | Pressure | Rain* | Wind** | Luminosity | Snow |
|---|---|---|---|---|---|---|---|
| 1778023834 | 0.56° C | 98% | 1013.9 hPa | 1.27 mm | - | 16 W/m² | - |
| 1778023532 | 0.56° C | 98% | 1013.8 hPa | 1.27 mm | - | 20 W/m² | - |
| 1778023229 | 0.56° C | 98% | 1013.6 hPa | 0 mm | - | 21 W/m² | - |
| 1778022926 | 0.56° C | 98% | 1013.6 hPa | 1.78 mm | - | 23 W/m² | - |
| 1778022625 | 0.56° C | 98% | 1013.9 hPa | 1.78 mm | - | 22 W/m² | - |
| 1778022322 | 0.56° C | 98% | 1013.6 hPa | 0 mm | - | 23 W/m² | - |
| 1778022018 | 0.56° C | 98% | 1013.4 hPa | 0 mm | - | 27 W/m² | - |
| 1778021715 | 0.56° C | 98% | 1013.3 hPa | 1.27 mm | - | 26 W/m² | - |
| 1778021411 | 0.56° C | 98% | 1013.1 hPa | 1.27 mm | - | 26 W/m² | - |
| 1778021108 | 0.56° C | 98% | 1013.1 hPa | 0 mm | - | 34 W/m² | - |
| 1778020805 | 0.56° C | 98% | 1013.1 hPa | 0 mm | - | 39 W/m² | - |
| 1778020502 | 0.56° C | 98% | 1013.1 hPa | 0 mm | - | 37 W/m² | - |
| 1778020198 | 0.56° C | 98% | 1013.3 hPa | 1.78 mm | - | 32 W/m² | - |
| 1778019895 | 0.56° C | 98% | 1012.9 hPa | 1.78 mm | - | 39 W/m² | - |
| 1778019591 | 0.56° C | 98% | 1013 hPa | 0 mm | - | 42 W/m² | - |
| 1778019288 | 0.56° C | 98% | 1013 hPa | 0 mm | - | 52 W/m² | - |
| 1778018985 | 0.56° C | 98% | 1013.1 hPa | 0 mm | - | 60 W/m² | - |
| 1778018682 | 0.56° C | 98% | 1013.1 hPa | 0 mm | - | 59 W/m² | - |
| 1778018380 | 0.56° C | 98% | 1013.4 hPa | 1.27 mm | - | 40 W/m² | - |
| 1778018078 | 0.56° C | 98% | 1013.4 hPa | 1.27 mm | - | 55 W/m² | - |
| 1778017775 | 0.56° C | 98% | 1013.5 hPa | 0 mm | - | 56 W/m² | - |
| 1778017473 | 0.56° C | 98% | 1013.4 hPa | 0 mm | - | 61 W/m² | - |
| 1778017170 | 0.56° C | 98% | 1013.5 hPa | 0 mm | - | 51 W/m² | - |
| 1778016868 | 0.56° C | 98% | 1013.6 hPa | 0 mm | - | 47 W/m² | - |
| 1778016564 | 0.56° C | 98% | 1013.8 hPa | 0 mm | - | 51 W/m² | - |
* Rain latest hour (hover to see other rain measurements)
** Current wind speed in m/s (hover to see current wind gust speed)